COSMOS 2513

Last updated on Sat Aug 15 2026 00:03:00 GMT+0000 (Coordinated Universal Time)

1 41121U 15075A 26226.15615294 -.00000154 00000+0 00000+0 0 9997 2 41121 0.0443 102.2630 0001402 6.8065 349.9658 1.00272576 39138
UTC large
Height (km)
Speed (km/s)
/
Latitude / Longitude
Inclination (degrees)
Orbital Period (minutes)
Azimuth
Elevation
Range (km)
Doppler Factor

Next 0 passes for location: London (51.5072 / 0.1276)

No passes found over London.
COSMOS 2513